默认 日期 大小 文件数 浏览量 最新下载 xml
somewhere磁力链接相关资源由用户搜索指令自动获取,结果来源于网络,本站不存储任何资料,亦不承担任何责任,请于24小时内删除,搜索到2667个磁力,用时3ms。
    {"SeeHD联盟-申明.nfo": 429, "注册申请QQ群:385241294.txt": 23, "SeeHD看高清联盟-Powered by SeeHD.htm": 106679, "Somewhere Only We Know 2015 720p HDTC x264 AAC-SeeHD.mp4": 1538797999}
创建时间: 2023-07-19 06:59:44 大小:1.43 GB 文件数量:4 热度:8 最近下载:2025-09-20 13:25:04
    ... Wait.mp3": 10581376, "01 Caught Somewhere in Time.mp3": 10685918, "06 ...
创建时间: 2023-07-19 17:56:12 大小:70.56 MB 文件数量:8 热度:2 最近下载:2025-01-18 23:42:13
    {"51A1YjRkcrL._SL500_.jpg": 35162, "Star Trek Discovery Somewhere to Belong Star Trek Discovery, Book 9.mp3": 312083739}
创建时间: 2023-07-23 16:58:08 大小:297.66 MB 文件数量:2 热度:4 最近下载:2025-04-13 03:22:01
    {"Cover.jpg": 120099, "03. Sean Boog - Be Easy.mp3": 5481761, "05. Sean Boog - Outta Here.mp3": 7569473, "04. Sean Boog - Things U Do.mp3": 9051141, "06. Sean Boog - Livin' Life.mp3": 7259141, "02. Sean Boog - Don't Say Shit.mp3": 7102412, "01. Sean Boog - ...
创建时间: 2023-07-25 18:32:37 大小:43.04 MB 文件数量:7 热度:5 最近下载:2025-09-25 01:43:02
    {"folder.jpg": 597366, "08 - If You.flac": 23275166, "07 - Sunshine.flac": 24470593, "09 - It Shows.flac": 29103431, "11 - Best I Can.flac": 29691724, "02 - Honest Lady.flac": 38465123, "03 - 19th Lullaby.flac": 25270459, "04 - Space Walkin.flac": 29644252 ...
创建时间: 2023-07-25 21:20:15 大小:332.01 MB 文件数量:13 热度:5 最近下载:2025-01-15 11:59:03
    {"title00.mkv": 5129992004, "title01.mkv": 2464047558, "title02.mkv": 131157804, "title03.mkv": 82415469, "title04.mkv": 128049744, "title05.mkv": 115904222, "title06.mkv": 91815520}
创建时间: 2023-07-29 05:33:54 大小:7.58 GB 文件数量:7 热度:4 最近下载:2025-03-05 01:30:02
    ... 有我们知道.Somewhere.Only.We.Know.2015.BD1080P ...
创建时间: 2023-07-29 16:30:37 大小:4.72 GB 文件数量:7 热度:15 最近下载:2025-10-12 21:26:03
    ... x265 Garshasp).mkv": 83550486, "6 - Somewhere in Dreamland (1935) (480p DVD ...
创建时间: 2023-07-31 07:46:38 大小:2.99 GB 文件数量:35 热度:12 最近下载:2025-09-21 03:19:01
    ... , "SBD haven't we met somewhere before.ffp": 828, "haven't ... we met somewhere before text.txt": 473}
创建时间: 2023-08-02 22:37:05 大小:1.06 GB 文件数量:28 热度:5 最近下载:2025-02-25 13:46:01
    ... the Line.mp3": 6840287, "02 - Somewhere in Between.mp3": 6312611, "04 ...
创建时间: 2023-08-03 23:32:29 大小:141.27 MB 文件数量:25 热度:4 最近下载:2025-09-11 21:21:16
    {"Somewhere (2010).BDRip.1080p.10bit.AV1.PlamenNik.mkv": 2597910246}
创建时间: 2023-08-07 05:21:44 大小:2.42 GB 文件数量:1 热度:4 最近下载:2025-08-05 10:16:05
    ... Must Be A Better World Somewhere (Album Version).flac": 30121017 ...
创建时间: 2023-08-08 15:22:40 大小:192.16 MB 文件数量:10 热度:4 最近下载:2025-02-17 17:27:04
    {"本站BT自动发布系统由晨风提供-欢迎联系合作.log": 574, "Somewhere.2010.在某处.双语字幕.HR-HDTV.AC3.1024X544.x264-人人影视制作.mkv": 2338493772}
创建时间: 2023-08-10 07:09:54 大小:2.18 GB 文件数量:2 热度:11 最近下载:2025-09-17 03:33:11
    {"Somebody Somewhere - Temporada 2 [HDTV 1080p][Cap.207].mkv": 861461028}
创建时间: 2023-08-10 20:59:55 大小:821.55 MB 文件数量:1 热度:7 最近下载:2025-02-18 04:54:02
    {"Password.txt": 183, "Marillion - Somewhere Else.rar": 72937852}
创建时间: 2023-08-14 23:16:48 大小:69.56 MB 文件数量:2 热度:8 最近下载:2025-09-19 10:07:06
    ... , "SDH.eng.HI.srt": 132012}, "Somewhere.In.Queens.2022.720p.WEBRip ... .x264.AAC-LAMA.mp4": 1026394505, "Somewhere.In.Queens.2022.720p.WEBRip ... .x264.AAC-LAMA.srt": 120621, "Somewhere.In.Queens.2022.720p.WEBRip ...
创建时间: 2023-08-15 21:08:55 大小:979.3 MB 文件数量:6 热度:2 最近下载:2025-01-12 09:06:02
    {"www.YTS.MX.jpg": 53226, "YTSYifyUP... (TOR).txt": 473, "Somewhere.In.Palilula.2012.1080p.WEBRip.x264.AAC-[YTS.MX].mp4": 2419930918, "Somewhere.In.Palilula.2012.1080p.WEBRip.x264.AAC-[YTS.MX].srt": 62120}
创建时间: 2023-08-16 21:40:35 大小:2.25 GB 文件数量:4 热度:2 最近下载:2025-01-20 22:16:14
    ... From Torrenting.com.txt": 84, "Somewhere.In.Palilula.2012.720p.WEBRip ... .x264.AAC-WORLD.mp4": 1304068897, "Somewhere.In.Palilula.2012.720p.WEBRip ... .x264.AAC-WORLD.srt": 62071, "Somewhere.In.Palilula.2012.720p.WEBRip ...
创建时间: 2023-08-18 16:22:24 大小:1.21 GB 文件数量:4 热度:2 最近下载:2025-02-07 09:22:06
    {"www.YTS.MX.jpg": 53226, "YIFYStatus.com.txt": 473, "Somewhere.In.Palilula.2012.720p.WEBRip.x264.AAC-[YTS.MX].mp4": 1304068897, "Somewhere.In.Palilula.2012.720p.WEBRip.x264.AAC-[YTS.MX].srt": 62120}
创建时间: 2023-08-18 19:48:53 大小:1.21 GB 文件数量:4 热度:2 最近下载:2025-01-12 09:05:07
    {"Sample": {"Sample.mkv": 13332560, "Leia-me.txt": 723}, "Leia-me.txt": 723, "Somewhere 2010 BRRip 720p X264-SKRAPY.mkv": 1809508888, "Somewhere 2010 BRRip 720p X264-SKRAPY.srt": 35862}
创建时间: 2023-08-19 05:33:27 大小:1.7 GB 文件数量:5 热度:2 最近下载:2025-01-12 01:17:02